Weather in Sobral

Brazil     3°41′15″S   40°20′46″W
temp.,
°C
wind,
m/s
gust,
m/s
humid.,
%
clouds,
%
prec.,
mm/h
press.,
hPa
HPBL,
m
28 february, sun
sun2800:00+23n1295100 0.6 101091
03:00+23n119699 0.9 100826
06:00+22se119698 0.0 100923
09:00+27ese247493 0.0 1011767
12:00+32se245447 0.0 10091512
15:00+28nne367672 1.1 1005484
18:00+25n288988 2.4 1006297
21:00+24n259394 3.9 1009191
1 march, mon
mon100:00+23nne1195100 0.1 100841
03:00+23ne0196100 0.3 100723
06:00+22w0197100 1.2 100827
09:00+27e257766 2.8 1010928
12:00+29ene357672 4.9 10081047
15:00+29e257283 10.8 10061204
18:00+25ene118766 1.7 100735
21:00+23nne259383 1.9 1009143
2 march, tue
tue200:00+22ne019585 0.0 100923
03:00+21s119689 0.0 100824
06:00+21s119856 0.0 100927
09:00+27ese247943 0.4 1011779
12:00+29ene247286 2.7 10101140
15:00+28ene257782 7.0 1008929
18:00+24nne1292100 4.3 100952
21:00+23ne129595 6.0 101252
3 march, wed
wed300:00+22nne119860 0.7 101245
03:00+22sse019880 1.3 101123
06:00+21s129997 0.0 101241
09:00+26se258284 0.1 1013797
12:00+31ese265761 0.4 10121716
15:00+31ene255959 2.2 10091581
18:00+25n2287100 0.9 101044
21:00+23nne2494100 1.6 1012121
4 march, thu
thu400:00+22n1196100 0.0 101243
03:00+22wsw119794 0.2 101124
06:00+22ssw129711 0.0 101243
09:00+27sse24746 0.0 1013885
12:00+32ese365044 0.1 10111896
15:00+27nnw367872 1.8 1009473
18:00+25nne3787100 3.3 1010152
21:00+23n2592100 3.5 1012171